Regional Weather Roundup
Issued by NWS Upton, NY

Current Version | Previous Version | Graphics & Text | Print | Product List | Glossary Off
Versions: 1 2 3 4 5 6 7 8 9 10 11 12 13 14 15 16 17 18 19 20 21 22 23 24 25 26 27

000
ASUS41 KOKX 141808
RWROKX

REGIONAL WEATHER ROUNDUP
NATIONAL WEATHER SERVICE NEW YORK NY
100 PM EST THU DEC 14 2017

NOTE: "FAIR" INDICATES FEW OR NO CLOUDS BELOW 12,000 FEET WITH NO
SIGNIFICANT WEATHER AND/OR OBSTRUCTIONS TO VISIBILITY.

NYZ071-072-176-178-NJZ106-104-141900-
NEW YORK CITY METRO AREA

CITY           SKY/WX    TMP DP  RH WIND       PRES   REMARKS
Central Park   SUNNY     31  15  52 VRB7G22   29.78R WCI  24
Bronx Bot Gard   N/A     32  16  51 NW8       29.77R WCI  25
Bronx Lehman C NOT AVBL
LaGuardia APRT MOSUNNY   32  17  54 NW17      29.76R WCI  21
Queens College NOT AVBL
Kennedy INTL   MOSUNNY   30  19  63 NW17      29.78R WCI  18
Breezy Point     N/A    N/A N/A N/A NW8G15      N/A
Brooklyn Coll  NOT AVBL
Staten Island  NOT AVBL
Newark/Liberty MOSUNNY   33  17  51 NW14      29.77R WCI  23
Teterboro      SUNNY     32  15  49 NW12G26   29.76R WCI  23
$$

NYZ177-179-078>081-141900-
LONG ISLAND NEW YORK

CITY           SKY/WX    TMP DP  RH WIND       PRES   REMARKS
Jones Beach      N/A    N/A N/A N/A NW13G18     N/A
Wantagh        NOT AVBL
Matinecock PT    N/A     32 N/A N/A NW23G30     N/A  WCI  19
Farmingdale    MOSUNNY   31  18  58 NW14G21   29.75R WCI  21
MacArthur/ISP  PTSUNNY   30  19  63 NW12      29.73R WCI  20
Shirley        MOSUNNY   30  21  69 NW16      29.73R WCI  19
Mt Sinai Harb    N/A    N/A N/A N/A NW8         N/A
Westhampton    MOSUNNY   30  22  72 NW14      29.73S WCI  19
East Hampton   FAIR      28  19  68 NW7       29.70S WCI  21
Southold       NOT AVBL
Montauk          N/A     31  20  63 NW13G21   29.71R WCI  21
$$

NYZ052-065-067-141900-
HUDSON VALLEY

CITY           SKY/WX    TMP DP  RH WIND       PRES   REMARKS
White Plains   MOSUNNY   29  16  58 NW17G23   29.72R WCI  17
Larchmont Harb   N/A    N/A N/A N/A NW12        N/A
Croton On Huds   N/A    N/A N/A N/A NW17        N/A
Somers         NOT AVBL
Brewster       NOT AVBL
Newburgh       MOSUNNY   28  16  59 NW16      29.75R WCI  17
Montgomery     PTSUNNY   28  11  48 N15G23    29.75R WCI  16
Otisville      NOT AVBL
Warwick        NOT AVBL
Suffern        NOT AVBL
Poughkeepsie   CLOUDY    28  14  55 N7        29.74R WCI  21
Albany         MOSUNNY   21   2  43 NW16G32   29.79R WCI   7
$$

NJZ001-105-106-008-010-013-015-019>022-104-141900-
NEW JERSEY

CITY           SKY/WX    TMP DP  RH WIND       PRES   REMARKS
Newark/Liberty MOSUNNY   33  17  51 NW14      29.77R WCI  23
Teterboro      SUNNY     32  15  49 NW12G26   29.76R WCI  23
Caldwell       MOSUNNY   31  14  49 NW14G22   29.77R WCI  21
Somerville     MOSUNNY   32  18  56 NW10      29.78R WCI  24
Linden         FAIR      32  17  53 NW10      29.78R WCI  24
Perth Amboy      N/A    N/A N/A N/A NW15        N/A
Sussex         SUNNY     27  10  49 NW14G23   29.77R WCI  16
Andover        NOT AVBL
Trenton        MOSUNNY   32  18  56 NW12G18   29.80R WCI  23
Millville      SUNNY     35  23  61 NW18G26   29.85R WCI  24
Atlantic City  MOSUNNY   37  24  59 NW21G26   29.81R WCI  26
Wrightstown    MOSUNNY   32  21  63 NW14G22   29.78R WCI  22
Toms River     PTSUNNY   35  22  58 NW18G24   29.80R WCI  24
Belmar         PTSUNNY   32  21  64 W14       29.79R WCI  22
$$

PAZ047>061-062-071-141900-
EASTERN PENNSYLVANIA

CITY           SKY/WX    TMP DP  RH WIND       PRES   REMARKS
Philadelphia   MOSUNNY   34  19  54 NW9G20    29.85R WCI  27
Allentown      CLOUDY    30  15  53 NW13      29.81R WCI  20
Scranton       PTSUNNY   22  11  62 NW17G25   29.79R WCI   8
$$

CTZ002-004>006-009-010-012-RIZ004-006-007-MAZ004-011-015-141900-
SOUTHERN NEW ENGLAND
 IN CT

CITY           SKY/WX    TMP DP  RH WIND       PRES   REMARKS
Bradley INTL   MOSUNNY   27  12  53 NW16G28   29.72R WCI  15
Hartford       SUNNY     29  12  49 NW16      29.72R WCI  17
Danbury        PTSUNNY   27  14  58 W8G20     29.73R WCI  19
Wtrbury/Oxford PTSUNNY   25  14  63 NW9       29.70R WCI  15
Norwalk Harbor   N/A    N/A N/A N/A W14         N/A
Bridgeport     MOSUNNY   31  15  52 W10G24    29.73R WCI  22
Meriden        SUNNY     28  12  51 NW15      29.72R WCI  16
New Haven      MOSUNNY   31  14  49 NW12G21   29.73R WCI  22
Chester        FLURRIES  28  12  50 NW16G24   29.68S WCI  17
Groton         SUNNY     29  15  56 NW20      29.70R WCI  16
Wilimantic     SUNNY     27  14  58 NW14G20   29.70R WCI  16

 IN RI

CITY           SKY/WX    TMP DP  RH WIND       PRES   REMARKS
Providence     MOSUNNY   29  15  56 NW9       29.68R WCI  20
Block Island   PTSUNNY   30  22  72 NW15G22   29.69R WCI  19
Westerly       MOSUNNY   29  16  58 VRB7G20   29.70R WCI  22
 IN MA

CITY           SKY/WX    TMP DP  RH WIND       PRES   REMARKS
Boston         MOSUNNY   29   8  41 NW14      29.65R WCI  18
Worcester      MOSUNNY   23   7  50 W20       29.60R WCI   8
Westfield      MOSUNNY   26   9  48 NW20G25   29.70R WCI  12
Provincetown   MOSUNNY   27  17  66 NW14G21   29.64R WCI  16
Nantucket      CLOUDY    29  25  85 NW13G23   29.63R WCI  19
$$

ANZ330-335-338-340-345-350-353-355-141900-
COASTAL MARINE OBSERVATIONS


STATION/POSITION TIME  SKY/WX   TEMP    WIND        PRES    VSBY  WAVE
                                AIR SEA DIR/SP/G                  HT/PER
                 (UTC)          (F)     (DEG/KT/KT) (MB)    (MI)  (FT/S)
NY HARB ENTRANCE 1650            31 53  330/ 17/ 21 1006.3          4/ 8
20 S FIRE ISLAND 1650            33 52  320/ 17/ 23 1005.9          7/ 8
GREAT SOUTH BAY  1630            28 45  340/ 10/ 14   N/A
HUDSON CANYON    1650            42 56  300/ 25/ 31 1003.8         10/ 8
KINGS POINT      1736            30 43  360/ 14/ 16 1008.4
EXECUTION ROCKS  1745            33     320/ 12/ 23   N/A
WESTERN LI SOUND NOT AVBL
CENTRAL LI SOUND NOT AVBL
ROBBINS REEF     1748            31     310/ 15/ 21 1008.6
$$


>>>>>>>>>>>>>>>>>>>>>>>>>>>> KEY <<<<<<<<<<<<<<<<<<<<<<<<<<<
>                                                          <
>     SKY/WX - Sky Condition/Present Weather               <
>     TMP    - Temperature in Fahrenheit                   <
>     DP     - Dew Point in Fahrenheit                     <
>     RH     - Relative Humidity in Percent                <
>     WIND   - Direction (from) and Speed in MPH           <
>     PRES   - Mean Sea Level Pressure (inches of Hg)      <
>     WCI    - Wind Chill Index                            <
>     VSB    - VISIBILITY IN MILES                         <
>     HX     - HEAT INDEX                                  <
>     TC     - TEMPERATURE IN CELSIUS                      <
>     VRB    - VARIABLE WIND DIRECTION                     <
>                                                          <
>>>>>>>>>>>>>>>>>>>>>>>>>>>> KEY <<<<<<<<<<<<<<<<<<<<<<<<<<<




USA.gov is the U.S. government's official web portal to all federal, state and local government web resources and services.